Location: Rounton
(54.4000°N, 1.3500°W)
Time: 08:55:13
(UTC+01:00)

deb Agena D - Pass Details

Date: 19 June 2023
Orbit: 996 x 1023 km, 100.1° (Epoch: 29 September)

Event Time Altitude Azimuth Distance (km) Brightness Sun altitude
Exits shadow 23:29:45 - 117° (ESE) 3,488 ? -9.4°
Reaches altitude 10° 23:31:52 10° 109° (ESE) 2,769 ? -9.5°
Maximum altitude 23:37:06 30° 51° (NE) 1,727 ? -9.8°
Drops below altitude 10° 23:42:20 10° 354° (N) 2,778 ? -10.1°
Sets 23:45:06 0° 344° (NNW) 3,732 ? -10.2°
